User: anonymous   Login
Location: Schommer Observatory
(40.5200°N, 74.4500°W)
Time: 01:23:30
(UTC-04:00)
Language:

Hubble Space Telescope - Orbit

View from above orbital plane
View from above orbital plane
View from above satellite
View from above satellite

Ground track
Ground track

The orbit data is extracted from the following two-line orbital elements,

1 20580U 90037B   18142.44735535 +.00000431 +00000-0 +15439-4 0  9990
2 20580 028.4696 285.2625 0002552 221.1478 179.4965 15.09040817341498
Epoch (UTC): 22 May 2018 10:44:11
Eccentricity: 0.0002552
inclination: 28.4696°
perigee height: 537 km
apogee height: 541 km
right ascension of ascending node: 285.2625°
argument of perigee: 221.1478°
revolutions per day: 15.09040817
mean anomaly at epoch: 179.4965°
orbit number at epoch: 34149

The dashed part of the orbit path shows where the satellite is in the earth's shadow,  

DLR